Location: Bacharowice
(49.9333°N, 19.5833°E)
Time: 03:50:55
(UTC+00:00)

Cosmos 2219 - Pass Details

Date: 11 May 2021
Orbit: 832 x 861 km, 71.1° (Epoch: 22 June)

Event Time Altitude Azimuth Distance (km) Brightness Sun altitude
Rises 23:41:02 0° 332° (NNW) 3,418 7.1 -20.5°
Reaches altitude 10° 23:43:35 10° 338° (NNW) 2,483 6.3 -20.4°
Maximum altitude 23:49:07 49° 54° (NE) 1,089 4.1 -20.1°
Drops below altitude 10° 23:54:39 10° 129° (SE) 2,487 5.4 -19.9°
Enters shadow 23:56:34 - 133° (SE) 3,192 6.0 -19.7°
